• In Belarus
  • List of Countries
  • For 7 days
  • Water Temperature
  • Weather Map
  • Weather Widgets
  • user-avatar
    Login

    Hourly Weather Ferrol

    Today, 28 February, Friday

    Time Temperature Precipitation Wind Pressure Humidity
    00:00 +10°C° 0 mm 5 mps 764 mmHg 91%
    01:00 +10°C° 0 mm 5 mps 763 mmHg 90%
    02:00 +9°C° 0 mm 5 mps 763 mmHg 89%
    03:00 +9°C° 0 mm 5 mps 762 mmHg 89%
    04:00 +9°C° 0 mm 5 mps 762 mmHg 88%
    05:00 +9°C° 0 mm 6 mps 762 mmHg 86%
    06:00 +10°C° 0 mm 6 mps 761 mmHg 80%
    07:00 +10°C° 0 mm 6 mps 761 mmHg 74%
    08:00 +12°C° 0 mm 5 mps 760 mmHg 68%
    09:00 +13°C° 0 mm 6 mps 760 mmHg 61%
    10:00 +15°C° 0 mm 6 mps 760 mmHg 54%
    11:00 +16°C° 0 mm 5 mps 759 mmHg 47%
    12:00 +16°C° 0 mm 5 mps 758 mmHg 45%
    13:00 +17°C° 0 mm 6 mps 757 mmHg 43%
    14:00 +17°C° 0 mm 7 mps 756 mmHg 41%
    15:00 +16°C° 0 mm 6 mps 756 mmHg 45%
    16:00 +14°C° 0 mm 6 mps 755 mmHg 50%
    17:00 +13°C° 0 mm 6 mps 755 mmHg 54%
    18:00 +11°C° 0 mm 7 mps 754 mmHg 59%
    19:00 +11°C° 0 mm 8 mps 753 mmHg 64%
    20:00 +10°C° 0 mm 9 mps 753 mmHg 69%
    21:00 +10°C° 0.6 mm 9 mps 752 mmHg 75%
    22:00 +9°C° 0.6 mm 10 mps 751 mmHg 81%
    23:00 +9°C° 0.6 mm 11 mps 750 mmHg 87%

    Tomorrow, 29 February, Saturday

    Time Temperature Precipitation Wind Pressure Humidity
    00:00 +11°C° 3 mm 11 mps 750 mmHg 90%
    01:00 +11°C° 3 mm 11 mps 749 mmHg 93%
    02:00 +12°C° 3 mm 11 mps 748 mmHg 96%
    03:00 +11°C° 0.5 mm 10 mps 749 mmHg 94%
    04:00 +9°C° 0.5 mm 10 mps 750 mmHg 93%
    05:00 +9°C° 0.5 mm 10 mps 750 mmHg 92%
    06:00 +8°C° 0.2 mm 9 mps 751 mmHg 91%
    07:00 +8°C° 0.2 mm 9 mps 752 mmHg 90%
    08:00 +7°C° 0.2 mm 9 mps 752 mmHg 88%
    09:00 +8°C° 0.2 mm 9 mps 753 mmHg 84%
    10:00 +10°C° 0.2 mm 9 mps 754 mmHg 80%
    11:00 +11°C° 0.2 mm 9 mps 754 mmHg 75%
    12:00 +10°C° 0.2 mm 9 mps 754 mmHg 76%
    13:00 +10°C° 0.2 mm 9 mps 754 mmHg 77%
    14:00 +10°C° 0.2 mm 8 mps 754 mmHg 77%
    15:00 +9°C° 0.1 mm 8 mps 754 mmHg 79%
    16:00 +9°C° 0.1 mm 8 mps 755 mmHg 81%
    17:00 +8°C° 0.1 mm 7 mps 755 mmHg 82%
    18:00 +8°C° 0.1 mm 7 mps 755 mmHg 84%
    19:00 +6°C° 0.1 mm 7 mps 755 mmHg 86%
    20:00 +6°C° 0.1 mm 7 mps 755 mmHg 89%
    21:00 +6°C° 0.2 mm 7 mps 755 mmHg 88%
    22:00 +6°C° 0.2 mm 7 mps 755 mmHg 88%
    23:00 +8°C° 0.2 mm 7 mps 755 mmHg 88%

    Day after tomorrow, 1 March, Sunday

    Time Temperature Precipitation Wind Pressure Humidity
    00:00 +7°C° 0 mm 8 mps 754 mmHg 87%
    01:00 +7°C° 0 mm 9 mps 753 mmHg 87%
    02:00 +7°C° 0 mm 9 mps 752 mmHg 86%
    03:00 +8°C° 0.6 mm 10 mps 751 mmHg 89%
    04:00 +8°C° 0.6 mm 11 mps 750 mmHg 91%
    05:00 +9°C° 0.6 mm 12 mps 749 mmHg 94%
    06:00 +9°C° 0.3 mm 11 mps 750 mmHg 93%
    07:00 +8°C° 0.3 mm 10 mps 751 mmHg 93%
    08:00 +8°C° 0.3 mm 9 mps 751 mmHg 93%
    09:00 +10°C° 0.2 mm 8 mps 752 mmHg 91%
    10:00 +10°C° 0.2 mm 8 mps 752 mmHg 89%
    11:00 +10°C° 0.2 mm 7 mps 753 mmHg 87%
    12:00 +10°C° 0.3 mm 7 mps 752 mmHg 88%
    13:00 +10°C° 0.3 mm 8 mps 752 mmHg 90%
    14:00 +8°C° 0.3 mm 9 mps 752 mmHg 91%
    15:00 +8°C° 0.5 mm 9 mps 752 mmHg 92%
    16:00 +8°C° 0.5 mm 9 mps 752 mmHg 93%
    17:00 +9°C° 0.5 mm 8 mps 751 mmHg 94%
    18:00 +9°C° 1.2 mm 8 mps 751 mmHg 95%
    19:00 +9°C° 1.2 mm 8 mps 751 mmHg 96%
    20:00 +9°C° 1.2 mm 8 mps 751 mmHg 97%
    21:00 +9°C° 1.2 mm 7 mps 750 mmHg 97%
    22:00 +9°C° 1.2 mm 6 mps 749 mmHg 97%
    23:00 +9°C° 1.2 mm 6 mps 749 mmHg 98%

    2 March, Monday

    Time Temperature Precipitation Wind Pressure Humidity
    00:00 +9°C° 1.7 mm 6 mps 748 mmHg 98%
    01:00 +9°C° 1.7 mm 6 mps 747 mmHg 98%
    02:00 +9°C° 1.7 mm 6 mps 747 mmHg 98%
    03:00 +9°C° 1.6 mm 7 mps 747 mmHg 98%
    04:00 +9°C° 1.6 mm 7 mps 746 mmHg 98%
    05:00 +9°C° 1.6 mm 7 mps 746 mmHg 98%
    06:00 +9°C° 1.7 mm 7 mps 747 mmHg 97%
    07:00 +8°C° 1.7 mm 6 mps 747 mmHg 96%
    08:00 +8°C° 1.7 mm 5 mps 748 mmHg 96%
    09:00 +7°C° 2.8 mm 5 mps 749 mmHg 95%
    10:00 +7°C° 2.8 mm 6 mps 750 mmHg 95%
    11:00 +5°C° 2.8 mm 6 mps 751 mmHg 95%
    12:00 +7°C° 0.3 mm 6 mps 752 mmHg 91%
    13:00 +6°C° 0.3 mm 7 mps 753 mmHg 87%
    14:00 +8°C° 0.3 mm 7 mps 754 mmHg 84%
    15:00 +8°C° 0.1 mm 6 mps 755 mmHg 84%
    16:00 +7°C° 0.1 mm 6 mps 756 mmHg 85%
    17:00 +6°C° 0.1 mm 5 mps 757 mmHg 86%
    18:00 +6°C° 0.1 mm 5 mps 758 mmHg 89%
    19:00 +5°C° 0.1 mm 5 mps 759 mmHg 92%
    20:00 +3°C° 0.1 mm 6 mps 759 mmHg 94%
    21:00 +5°C° 0.2 mm 5 mps 760 mmHg 94%
    22:00 +5°C° 0.2 mm 5 mps 760 mmHg 94%
    23:00 +5°C° 0.2 mm 5 mps 761 mmHg 94%

    3 March, Tuesday

    Time Temperature Precipitation Wind Pressure Humidity
    00:00 +5°C° 0.1 mm 5 mps 761 mmHg 94%
    01:00 +6°C° 0.1 mm 4 mps 761 mmHg 95%
    02:00 +6°C° 0.1 mm 4 mps 761 mmHg 95%
    03:00 +6°C° 0 mm 4 mps 761 mmHg 95%
    04:00 +6°C° 0 mm 4 mps 761 mmHg 95%
    05:00 +5°C° 0 mm 4 mps 761 mmHg 95%
    06:00 +6°C° 0.2 mm 5 mps 761 mmHg 95%
    07:00 +6°C° 0.2 mm 5 mps 761 mmHg 94%
    08:00 +5°C° 0.2 mm 6 mps 761 mmHg 94%
    09:00 +6°C° 0.1 mm 7 mps 761 mmHg 93%
    10:00 +7°C° 0.1 mm 8 mps 760 mmHg 92%
    11:00 +7°C° 0.1 mm 9 mps 760 mmHg 91%
    12:00 +8°C° 0.1 mm 9 mps 759 mmHg 91%
    13:00 +10°C° 0.1 mm 9 mps 759 mmHg 91%
    14:00 +11°C° 0.1 mm 9 mps 758 mmHg 91%
    15:00 +11°C° 0.1 mm 9 mps 758 mmHg 91%
    16:00 +12°C° 0.1 mm 9 mps 758 mmHg 91%
    17:00 +12°C° 0.1 mm 9 mps 758 mmHg 91%
    18:00 +13°C° 0.1 mm 9 mps 758 mmHg 92%
    19:00 +13°C° 0.1 mm 8 mps 758 mmHg 93%
    20:00 +13°C° 0.1 mm 8 mps 758 mmHg 94%
    21:00 +13°C° 0.4 mm 8 mps 758 mmHg 93%
    22:00 +13°C° 0.4 mm 8 mps 758 mmHg 93%
    23:00 +12°C° 0.4 mm 8 mps 758 mmHg 92%

    4 March, Wednesday

    Time Temperature Precipitation Wind Pressure Humidity
    00:00 +13°C° 0.8 mm 8 mps 758 mmHg 94%
    01:00 +13°C° 0.8 mm 8 mps 758 mmHg 96%
    02:00 +13°C° 0.8 mm 8 mps 758 mmHg 98%
    03:00 +14°C° 0.8 mm 7 mps 759 mmHg 98%
    04:00 +14°C° 0.8 mm 7 mps 759 mmHg 98%
    05:00 +14°C° 0.8 mm 6 mps 759 mmHg 98%
    06:00 +14°C° 0.7 mm 6 mps 759 mmHg 98%
    07:00 +14°C° 0.7 mm 6 mps 760 mmHg 98%
    08:00 +14°C° 0.7 mm 5 mps 760 mmHg 98%
    09:00 +14°C° 0.5 mm 5 mps 760 mmHg 97%
    10:00 +14°C° 0.5 mm 5 mps 760 mmHg 97%
    11:00 +15°C° 0.5 mm 5 mps 760 mmHg 96%
    12:00 +15°C° 0.3 mm 6 mps 759 mmHg 95%
    13:00 +15°C° 0.3 mm 6 mps 759 mmHg 93%
    14:00 +16°C° 0.3 mm 7 mps 758 mmHg 91%
    15:00 +15°C° 0.4 mm 7 mps 758 mmHg 93%
    16:00 +15°C° 0.4 mm 7 mps 758 mmHg 95%
    17:00 +15°C° 0.4 mm 6 mps 757 mmHg 97%
    18:00 +15°C° 1.2 mm 6 mps 757 mmHg 97%
    19:00 +15°C° 1.2 mm 6 mps 757 mmHg 98%
    20:00 +15°C° 1.2 mm 6 mps 756 mmHg 98%
    21:00 +15°C° 2.4 mm 7 mps 756 mmHg 97%
    22:00 +15°C° 2.4 mm 7 mps 755 mmHg 97%
    23:00 +15°C° 2.4 mm 7 mps 754 mmHg 97%
    Show more